Location: Woodland Altars Campground
(39.0410°N, 83.3840°W)
Time: 08:16:19
(UTC-04:00)

N. Korean satellite - Visible Passes

Search period start: 23 March 2019 00:00
Search period end: 02 April 2019 00:00
Orbit: 456 x 510 km, 97.2° (Epoch: 22 March)

Date Brightness Start Highest point End Pass type
(mag) Time Alt. Az. Time Alt. Az. Time Alt. Az.
23 Mar 10.5 06:37:09 10° E 06:37:42 10° E 06:38:14 10° E visible
26 Mar 9.8 06:54:13 10° NE 06:56:46 18° E 06:59:21 10° SE visible
30 Mar 9.9 06:48:32 10° NE 06:50:49 16° E 06:53:07 10° SE visible
